Flag for Greece Weather past 2 weeks in Preveza, Greece

Now
55 °F

Scattered clouds.


Feels Like: 54 °F
Forecast: 49 / 56 °F
Wind: 6 mph from Northeast

Location: Aktion Airport

Current Time: Mar 1, 2015 at 11:20:15 AM

Latest Report: Mar 1, 2015 at 10:50 AM


Visibility: N/A

Pressure: 30.09 "Hg

Humidity: 77%

Dew point: 48 °F

Location of PrevezaLocation

Historic Weather in Preveza — Graph

°F

Preveza temperature yesterday

Maximum temperature yesterday: 55 °F (at 1:20 PM)
Minimum temperature yesterday: 48 °F (at 5:50 AM)
Average temperature yesterday: 53 °F

Past Weeks' High & Low Weather Summary

 TemperatureHumidityPressure
High63 °F (Feb 24, 2:20 PM)94% (Feb 23, 9:20 AM)30.48 "Hg (Feb 23, 9:20 AM)
Low34 °F (Feb 19, 12:50 AM)19% (Feb 19, 12:50 PM)29.62 "Hg (Feb 25, 1:50 AM)
Average50 °F68%30.02 "Hg
* Reported Feb 14 9:20 AM — Mar 1 9:50 AM, Preveza, Weather by CustomWeather, © 2015

Note: Actual official high and low records may vary slightly from our data, if they occured in-between our weather recording intervals... More about our weather records

Advertising

Preveza weather history for previous 24 hours

 ConditionsComfort  
Time TempWeatherWind HumidityBarometerVisibility
9:50 AM
Sun, Mar 1
50 °FPartly sunny.5 mph88%30.09 "HgN/A
9:20 AM52 °FPartly sunny.No wind82%30.09 "HgN/A
8:50 AM50 °FPartly sunny.5 mph88%30.09 "HgN/A
8:20 AM50 °FLight rain. Partly sunny.5 mph82%30.07 "HgN/A
7:50 AM48 °FLight rain. Partly sunny.No wind87%30.07 "HgN/A
7:20 AM48 °FLight rain. Partly sunny.No wind87%30.07 "HgN/A
6:50 AM48 °FOvercast.5 mph87%30.07 "HgN/A
6:20 AM50 °FOvercast.6 mph88%30.07 "HgN/A
5:50 AM48 °FOvercast.6 mph94%30.07 "HgN/A
5:20 AM48 °FOvercast.5 mph87%30.04 "HgN/A
4:50 AM48 °FOvercast.5 mph87%30.04 "HgN/A
3:50 AM48 °FLight rain. Overcast.No wind94%30.04 "HgN/A
2:50 AM48 °FLight rain. Overcast.9 mph94%30.04 "HgN/A
1:50 AM52 °FThunderstorms. Partly cloudy.No wind94%30.07 "Hg6 mi
12:50 AM52 °FThunderstorms. Partly cloudy.No wind94%30.04 "Hg6 mi
11:50 PM
Sat, Feb 28
52 °FLight rain. Partly cloudy.No wind94%30.07 "HgN/A
10:50 PM52 °FLight rain. Partly cloudy.5 mph94%30.04 "HgN/A
9:50 PM52 °FLight rain. Partly cloudy.No wind94%30.04 "HgN/A
8:50 PM52 °FPartly cloudy.No wind94%30.04 "HgN/A
7:50 PM52 °FPartly cloudy.No wind94%30.01 "HgN/A
7:20 PM52 °FPartly cloudy.5 mph94%30.01 "HgN/A
6:50 PM54 °FPartly cloudy.No wind88%30.01 "HgN/A
6:20 PM54 °FBroken clouds.No wind88%29.98 "HgN/A
5:50 PM54 °FCloudy.No wind88%29.98 "HgN/A
5:20 PM55 °FBroken clouds.No wind82%29.98 "HgN/A
4:50 PM55 °FLight rain. Cloudy.No wind82%29.98 "HgN/A
4:20 PM55 °FLight rain. Cloudy.7 mph88%29.98 "HgN/A
3:50 PM54 °FLight rain. Cloudy.7 mph88%29.98 "HgN/A
3:20 PM55 °FLight rain. Cloudy.8 mph82%29.98 "HgN/A
2:50 PM55 °FLight rain. Cloudy.8 mph82%29.98 "HgN/A
2:20 PM55 °FCloudy.6 mph82%29.98 "HgN/A
1:50 PM55 °FLight rain. Cloudy.6 mph82%29.98 "HgN/A
1:20 PM55 °FLight rain. More clouds than sun.No wind82%29.98 "HgN/A
12:50 PM54 °FMore clouds than sun.No wind88%29.98 "HgN/A
12:20 PM54 °FMore clouds than sun.5 mph82%29.98 "HgN/A
11:50 AM54 °FMore clouds than sun.No wind88%29.95 "HgN/A
11:20 AM54 °FMore clouds than sun.6 mph88%29.95 "HgN/A
Weather by CustomWeather, © 2015

See weather overviewHow to use our weather pages